Tracking 28356 objects as of 7-Dec-2023
HD Live streaming from Space Station
objects crossing your sky now

STARLINK-30805

Track STARLINK-30805 now!
10-day predictions
STARLINK-30805 is classified as:


NORAD ID: 58214
Int'l Code: 2023-170J
Perigee: 524.6 km
Apogee: 525.8 km
Inclination: 43.0 °
Period: 95.0 minutes
Semi major axis: 6896 km
RCS: Unknown
Launch date: November 3, 2023
Source: United States (US)
Launch site: AIR FORCE EASTERN TEST RANGE (AFETR)
Your satellite tracking list
Your tracking list is empty




NASA's NSSDC Master Catalog

Two Line Element Set (TLE):
1 58214U 23170J   23341.48345105  .00001306  00000-0  78711-4 0  9994
2 58214  43.0003 351.0549 0000837 266.0093  94.0658 15.15959310  6426
Source of the keplerian elements: AFSPC